Cosmos 1869 Rocket - Orbit

View from above orbital plane
View from above orbital plane
View from above satellite
View from above satellite

Ground track
Ground track

The orbit data is extracted from the following two-line orbital elements,

1 18215U 87062B   13145.80678793  .00000342  00000-0  39865-4 0   414
2 18215 082.5137 233.0792 0019731 333.2277 175.3142 14.82182479396152
Epoch (UTC): 25 May 2013 19:21:46
Eccentricity: 0.0019731
inclination: 82.5137°
perigee height: 608 km
apogee height: 636 km
right ascension of ascending node: 233.0792°
argument of perigee: 333.2277°
revolutions per day: 14.82182479
mean anomaly at epoch: 175.3142°
orbit number at epoch: 39615

The dashed part of the orbit path shows where the satellite is in the earth's shadow,  

Developed and maintained by Chris Peat, Heavens-Above GmbH. Please read the updated FAQ before sending e-mail. Imprint. DLR